| time (UTC) | temp F | wind direction | speed MPH | gust MPH | rain 1hr in | rain 24hr in | rain mn in | humidity % | barometer mb |
| 20260506013455 | 71 | 52 | 2.0 | 2.0 | 0.00 | 0.00 | 0.00 | 68 | 1005.2 |
| 20260506012951 | 71 | 65 | 2.0 | 3.0 | 0.00 | 0.00 | 0.00 | 67 | 1005.1 |
| 20260506012447 | 72 | 351 | 2.0 | 4.0 | 0.00 | 0.00 | 0.00 | 66 | 1005.1 |
| 20260506011944 | 73 | 4 | 0.0 | 0.0 | 0.00 | 0.00 | 0.00 | 67 | 1004.9 |
| 20260506011442 | 73 | 324 | 0.0 | 0.0 | 0.00 | 0.00 | 0.00 | 67 | 1004.7 |
| 20260506010938 | 73 | 27 | 0.0 | 1.0 | 0.00 | 0.00 | 0.00 | 66 | 1004.6 |
| 20260506010438 | 73 | 308 | 0.0 | 1.0 | 0.00 | 0.00 | 0.00 | 65 | 1004.6 |
| 20260506005933 | 73 | 10 | 0.0 | 0.0 | 0.00 | 0.00 | 0.00 | 65 | 1004.9 |
| 20260506005432 | 73 | 331 | 2.0 | 2.0 | 0.00 | 0.00 | 0.00 | 65 | 1005.0 |
| 20260506004926 | 73 | 342 | 2.0 | 3.0 | 0.00 | 0.00 | 0.00 | 64 | 1003.8 |
| 20260506004425 | 74 | 334 | 0.0 | 1.0 | 0.00 | 0.00 | 0.00 | 64 | 1004.2 |
| 20260506003920 | 74 | 41 | 3.0 | 6.0 | 0.00 | 0.00 | 0.00 | 63 | 1004.5 |
| 20260506003417 | 74 | 0 | 2.0 | 3.0 | 0.00 | 0.00 | 0.00 | 63 | 1004.2 |
| 20260506002913 | 74 | 81 | 4.0 | 7.0 | 0.00 | 0.00 | 0.00 | 63 | 1004.1 |
| 20260506002409 | 75 | 28 | 1.0 | 1.0 | 0.00 | 0.00 | 0.00 | 63 | 1003.9 |
| 20260506001905 | 75 | 350 | 2.0 | 2.0 | 0.00 | 0.00 | 0.00 | 62 | 1003.7 |
| 20260506001402 | 75 | 35 | 3.0 | 8.0 | 0.00 | 0.00 | 0.00 | 62 | 1003.9 |
| 20260506000859 | 75 | 55 | 3.0 | 6.0 | 0.00 | 0.00 | 0.00 | 61 | 1003.4 |
| 20260506000357 | 76 | 338 | 2.0 | 3.0 | 0.00 | 0.00 | 0.00 | 61 | 1003.8 |
| 20260505235854 | 76 | 334 | 3.0 | 6.0 | 0.00 | 0.00 | 0.00 | 61 | 1003.7 |
| 20260505235351 | 77 | 285 | 3.0 | 3.0 | 0.00 | 0.00 | 0.00 | 60 | 1003.7 |
| 20260505234848 | 77 | 24 | 2.0 | 3.0 | 0.00 | 0.00 | 0.00 | 59 | 1003.6 |
| 20260505234346 | 78 | 14 | 2.0 | 3.0 | 0.00 | 0.00 | 0.00 | 58 | 1003.4 |
| 20260505233842 | 78 | 329 | 2.0 | 3.0 | 0.00 | 0.00 | 0.00 | 59 | 1003.6 |
| 20260505233340 | 79 | 340 | 4.0 | 4.0 | 0.00 | 0.00 | 0.00 | 57 | 1003.5 |
| 20260505232837 | 80 | 55 | 2.0 | 6.0 | 0.00 | 0.00 | 0.00 | 56 | 1003.4 |
| 20260505232335 | 80 | 18 | 1.0 | 1.0 | 0.00 | 0.00 | 0.00 | 57 | 1003.2 |
| 20260505231832 | 81 | 54 | 3.0 | 6.0 | 0.00 | 0.00 | 0.00 | 56 | 1003.5 |
| 20260505231329 | 81 | 141 | 3.0 | 6.0 | 0.00 | 0.00 | 0.00 | 55 | 1003.6 |
| 20260505230827 | 82 | 359 | 2.0 | 3.0 | 0.00 | 0.00 | 0.00 | 55 | 1003.1 |
| 20260505230324 | 82 | 8 | 2.0 | 2.0 | 0.00 | 0.00 | 0.00 | 54 | 1003.0 |
| 20260505225821 | 83 | 61 | 1.0 | 2.0 | 0.00 | 0.00 | 0.00 | 53 | 1003.0 |
| 20260505225318 | 84 | 32 | 2.0 | 2.0 | 0.00 | 0.00 | 0.00 | 53 | 1002.8 |
| 20260505224813 | 86 | 0 | 2.0 | 2.0 | 0.00 | 0.00 | 0.00 | 50 | 1002.5 |
| 20260505224311 | 87 | 19 | 2.0 | 3.0 | 0.00 | 0.00 | 0.00 | 47 | 1002.8 |
| 20260505223808 | 88 | 359 | 0.0 | 0.0 | 0.00 | 0.00 | 0.00 | 44 | 1002.6 |
| 20260505223305 | 90 | 7 | 1.0 | 2.0 | 0.00 | 0.00 | 0.00 | 41 | 1002.6 |
| 20260505222801 | 92 | 319 | 2.0 | 2.0 | 0.00 | 0.00 | 0.00 | 38 | 1002.3 |
| 20260505222257 | 93 | 24 | 1.0 | 1.0 | 0.00 | 0.00 | 0.00 | 37 | 1002.1 |
| 20260505221754 | 93 | 322 | 1.0 | 1.0 | 0.00 | 0.00 | 0.00 | 38 | 1002.1 |
| 20260505221251 | 93 | 334 | 3.0 | 3.0 | 0.00 | 0.00 | 0.00 | 36 | 1002.1 |
| 20260505220748 | 93 | 18 | 0.0 | 0.0 | 0.00 | 0.00 | 0.00 | 36 | 1001.9 |
| 20260505220245 | 95 | 344 | 0.0 | 0.0 | 0.00 | 0.00 | 0.00 | 34 | 1001.9 |
| 20260505215743 | 95 | 38 | 2.0 | 2.0 | 0.00 | 0.00 | 0.00 | 35 | 1001.9 |
| 20260505215241 | 95 | 338 | 1.0 | 1.0 | 0.00 | 0.00 | 0.00 | 36 | 1002.0 |
| 20260505214739 | 98 | 9 | 3.0 | 3.0 | 0.00 | 0.00 | 0.00 | 34 | 1002.1 |
| 20260505214236 | 98 | 286 | 1.0 | 2.0 | 0.00 | 0.00 | 0.00 | 37 | 1002.2 |
| 20260505213733 | 99 | 353 | 1.0 | 2.0 | 0.00 | 0.00 | 0.00 | 37 | 1001.8 |
| 20260505213230 | 99 | 307 | 0.0 | 1.0 | 0.00 | 0.00 | 0.00 | 37 | 1002.0 |
| 20260505212726 | 98 | 249 | 2.0 | 3.0 | 0.00 | 0.00 | 0.00 | 37 | 1001.9 |
| 20260505212223 | 96 | 314 | 1.0 | 1.0 | 0.00 | 0.00 | 0.00 | 40 | 1002.0 |
| 20260505211720 | 96 | 27 | 2.0 | 3.0 | 0.00 | 0.00 | 0.00 | 39 | 1002.2 |
| 20260505211218 | 96 | 264 | 1.0 | 2.0 | 0.00 | 0.00 | 0.00 | 39 | 1002.4 |
| 20260505210714 | 96 | 348 | 1.0 | 1.0 | 0.00 | 0.00 | 0.00 | 40 | 1002.4 |
| 20260505210211 | 97 | 108 | 4.0 | 4.0 | 0.00 | 0.00 | 0.00 | 38 | 1002.5 |
| 20260505205708 | 97 | 285 | 2.0 | 4.0 | 0.00 | 0.00 | 0.00 | 38 | 1002.3 |
| 20260505205206 | 96 | 331 | 2.0 | 3.0 | 0.00 | 0.00 | 0.00 | 41 | 1002.2 |
| 20260505204702 | 94 | 279 | 1.0 | 1.0 | 0.00 | 0.00 | 0.00 | 45 | 1002.6 |
| 20260505204200 | 94 | 224 | 3.0 | 3.0 | 0.00 | 0.00 | 0.00 | 44 | 1002.5 |
| 20260505203658 | 94 | 285 | 6.0 | 8.0 | 0.00 | 0.00 | 0.00 | 44 | 1002.6 |
| 20260505203154 | 94 | 208 | 1.0 | 2.0 | 0.00 | 0.00 | 0.00 | 44 | 1002.4 |
| 20260505202649 | 96 | 291 | 2.0 | 2.0 | 0.00 | 0.00 | 0.00 | 42 | 1002.6 |
| 20260505202146 | 95 | 303 | 2.0 | 2.0 | 0.00 | 0.00 | 0.00 | 43 | 1002.7 |
| 20260505201643 | 94 | 306 | 2.0 | 2.0 | 0.00 | 0.00 | 0.00 | 43 | 1003.1 |
| 20260505201141 | 94 | 151 | 2.0 | 3.0 | 0.00 | 0.00 | 0.00 | 44 | 1002.9 |
| 20260505200639 | 94 | 149 | 3.0 | 6.0 | 0.00 | 0.00 | 0.00 | 44 | 1002.8 |
| 20260505200135 | 94 | 142 | 1.0 | 2.0 | 0.00 | 0.00 | 0.00 | 46 | 1002.9 |
| 20260505195632 | 93 | 172 | 1.0 | 2.0 | 0.00 | 0.00 | 0.00 | 46 | 1002.8 |
| 20260505195129 | 93 | 169 | 1.0 | 1.0 | 0.00 | 0.00 | 0.00 | 46 | 1003.0 |
| 20260505194626 | 92 | 291 | 1.0 | 2.0 | 0.00 | 0.00 | 0.00 | 48 | 1002.8 |
| 20260505194122 | 92 | 201 | 2.0 | 3.0 | 0.00 | 0.00 | 0.00 | 47 | 1002.9 |
| 20260505193619 | 92 | 181 | 4.0 | 8.0 | 0.00 | 0.00 | 0.00 | 47 | 1003.0 |
| 20260505193116 | 91 | 46 | 2.0 | 2.0 | 0.00 | 0.00 | 0.00 | 48 | 1002.9 |
| 20260505192614 | 91 | 232 | 2.0 | 2.0 | 0.00 | 0.00 | 0.00 | 48 | 1003.0 |
| 20260505192111 | 91 | 301 | 1.0 | 2.0 | 0.00 | 0.00 | 0.00 | 49 | 1003.0 |
| 20260505191610 | 90 | 318 | 3.0 | 4.0 | 0.00 | 0.00 | 0.00 | 50 | 1002.9 |
| 20260505191107 | 89 | 303 | 2.0 | 4.0 | 0.00 | 0.00 | 0.00 | 51 | 1003.0 |
| 20260505190602 | 90 | 284 | 2.0 | 3.0 | 0.00 | 0.00 | 0.00 | 50 | 1002.7 |
| 20260505190058 | 90 | 278 | 1.0 | 1.0 | 0.00 | 0.00 | 0.00 | 51 | 1002.9 |
| 20260505185555 | 89 | 225 | 1.0 | 1.0 | 0.00 | 0.00 | 0.00 | 51 | 1002.9 |
| 20260505185051 | 89 | 319 | 2.0 | 3.0 | 0.00 | 0.00 | 0.00 | 51 | 1003.0 |
| 20260505184548 | 89 | 263 | 1.0 | 1.0 | 0.00 | 0.00 | 0.00 | 51 | 1003.0 |
| 20260505184045 | 89 | 185 | 1.0 | 3.0 | 0.00 | 0.00 | 0.00 | 51 | 1003.0 |
| 20260505183541 | 89 | 308 | 3.0 | 4.0 | 0.00 | 0.00 | 0.00 | 50 | 1003.0 |
| 20260505183039 | 89 | 184 | 1.0 | 2.0 | 0.00 | 0.00 | 0.00 | 51 | 1003.1 |
| 20260505182535 | 88 | 268 | 2.0 | 2.0 | 0.00 | 0.00 | 0.00 | 51 | 1002.9 |
| 20260505182032 | 88 | 258 | 1.0 | 2.0 | 0.00 | 0.00 | 0.00 | 53 | 1002.9 |
| 20260505181529 | 88 | 9 | 1.0 | 2.0 | 0.00 | 0.00 | 0.00 | 53 | 1002.9 |
| 20260505181026 | 88 | 189 | 5.0 | 6.0 | 0.00 | 0.00 | 0.00 | 54 | 1003.4 |
| 20260505180521 | 88 | 157 | 2.0 | 3.0 | 0.00 | 0.00 | 0.00 | 54 | 1003.0 |
| 20260505180020 | 88 | 243 | 2.0 | 4.0 | 0.00 | 0.00 | 0.00 | 54 | 1002.9 |
| 20260505175514 | 87 | 234 | 1.0 | 2.0 | 0.00 | 0.00 | 0.00 | 54 | 1003.1 |
| 20260505175012 | 87 | 289 | 2.0 | 3.0 | 0.00 | 0.00 | 0.00 | 56 | 1003.0 |
| 20260505174509 | 86 | 224 | 2.0 | 3.0 | 0.00 | 0.00 | 0.00 | 57 | 1003.0 |
| 20260505174004 | 86 | 72 | 4.0 | 6.0 | 0.00 | 0.00 | 0.00 | 56 | 1003.0 |
| 20260505173501 | 86 | 234 | 3.0 | 4.0 | 0.00 | 0.00 | 0.00 | 56 | 1003.0 |
| 20260505172958 | 86 | 274 | 1.0 | 3.0 | 0.00 | 0.00 | 0.00 | 56 | 1002.8 |
| 20260505172457 | 86 | 196 | 4.0 | 8.0 | 0.00 | 0.00 | 0.00 | 56 | 1003.2 |
| 20260505171956 | 86 | 169 | 4.0 | 6.0 | 0.00 | 0.00 | 0.00 | 57 | 1002.8 |
| 20260505171453 | 85 | 266 | 1.0 | 1.0 | 0.00 | 0.00 | 0.00 | 59 | 1003.0 |
| 20260505170949 | 83 | 268 | 3.0 | 6.0 | 0.00 | 0.00 | 0.00 | 61 | 1003.1 |
| 20260505170447 | 83 | 115 | 2.0 | 3.0 | 0.00 | 0.00 | 0.00 | 61 | 1003.1 |
| 20260505165942 | 83 | 286 | 1.0 | 2.0 | 0.00 | 0.00 | 0.00 | 61 | 1003.2 |
| 20260505165438 | 83 | 254 | 2.0 | 3.0 | 0.00 | 0.00 | 0.00 | 62 | 1003.4 |
| 20260505164933 | 83 | 147 | 6.0 | 7.0 | 0.00 | 0.00 | 0.00 | 61 | 1003.1 |
| 20260505164430 | 83 | 159 | 4.0 | 4.0 | 0.00 | 0.00 | 0.00 | 62 | 1003.1 |
| 20260505163928 | 83 | 223 | 3.0 | 3.0 | 0.00 | 0.00 | 0.00 | 63 | 1003.1 |
| 20260505163427 | 82 | 260 | 4.0 | 7.0 | 0.00 | 0.00 | 0.00 | 63 | 1003.2 |
| 20260505162926 | 82 | 209 | 2.0 | 2.0 | 0.00 | 0.00 | 0.00 | 65 | 1003.1 |
| 20260505162421 | 82 | 11 | 1.0 | 2.0 | 0.00 | 0.00 | 0.00 | 64 | 1003.1 |
| 20260505161918 | 81 | 181 | 3.0 | 4.0 | 0.00 | 0.00 | 0.00 | 65 | 1003.2 |
| 20260505161415 | 81 | 103 | 6.0 | 11.0 | 0.00 | 0.00 | 0.00 | 64 | 1003.1 |
| 20260505160912 | 81 | 160 | 4.0 | 7.0 | 0.00 | 0.00 | 0.00 | 64 | 1003.1 |
| 20260505160410 | 81 | 94 | 2.0 | 3.0 | 0.00 | 0.00 | 0.00 | 65 | 1002.7 |
| 20260505153349 | 82 | 205 | 4.0 | 6.0 | 0.00 | 0.00 | 0.00 | 63 | 1002.8 |
| 20260505152846 | 82 | 296 | 4.0 | 4.0 | 0.00 | 0.00 | 0.00 | 64 | 1002.6 |
| 20260505152344 | 81 | 183 | 3.0 | 4.0 | 0.00 | 0.00 | 0.00 | 66 | 1002.5 |
| 20260505151843 | 79 | 87 | 3.0 | 3.0 | 0.00 | 0.00 | 0.00 | 69 | 1002.6 |
| 20260505151340 | 78 | 165 | 3.0 | 4.0 | 0.00 | 0.00 | 0.00 | 70 | 1002.7 |
| 20260505150837 | 78 | 88 | 4.0 | 8.0 | 0.00 | 0.00 | 0.00 | 72 | 1002.8 |
| 20260505150334 | 77 | 192 | 8.0 | 11.0 | 0.00 | 0.00 | 0.00 | 71 | 1002.7 |
| 20260505140258 | 74 | 76 | 1.0 | 2.0 | 0.00 | 0.00 | 0.00 | 77 | 1002.8 |
| 20260505130222 | 72 | 191 | 3.0 | 6.0 | 0.00 | 0.00 | 0.00 | 82 | 1002.8 |
| 20260505124712 | 72 | 191 | 6.0 | 7.0 | 0.00 | 0.00 | 0.00 | 82 | 1002.6 |
| 20260505124209 | 72 | 192 | 4.0 | 6.0 | 0.00 | 0.00 | 0.00 | 82 | 1002.5 |
| 20260505123705 | 72 | 193 | 6.0 | 9.0 | 0.00 | 0.00 | 0.00 | 82 | 1002.4 |
| 20260505123202 | 72 | 225 | 2.0 | 3.0 | 0.00 | 0.00 | 0.00 | 82 | 1002.2 |
| 20260505122658 | 72 | 165 | 5.0 | 7.0 | 0.00 | 0.00 | 0.00 | 82 | 1002.0 |
| 20260505122155 | 72 | 328 | 4.0 | 6.0 | 0.00 | 0.00 | 0.00 | 82 | 1001.9 |
| 20260505121652 | 72 | 316 | 2.0 | 3.0 | 0.00 | 0.00 | 0.00 | 82 | 1002.0 |
| 20260505121148 | 72 | 170 | 4.0 | 6.0 | 0.00 | 0.00 | 0.00 | 82 | 1001.9 |
| 20260505120645 | 72 | 208 | 4.0 | 7.0 | 0.00 | 0.00 | 0.00 | 82 | 1002.0 |
| 20260505120141 | 72 | 143 | 9.0 | 10.0 | 0.00 | 0.00 | 0.00 | 82 | 1001.7 |
| 20260505115635 | 72 | 252 | 3.0 | 4.0 | 0.00 | 0.00 | 0.00 | 82 | 1001.8 |
| 20260505115133 | 72 | 231 | 4.0 | 6.0 | 0.00 | 0.00 | 0.00 | 82 | 1001.9 |
| 20260505114630 | 72 | 230 | 5.0 | 10.0 | 0.00 | 0.00 | 0.00 | 81 | 1001.8 |
| 20260505114126 | 72 | 149 | 7.0 | 11.0 | 0.00 | 0.00 | 0.00 | 81 | 1001.6 |
| 20260505113622 | 72 | 253 | 6.0 | 8.0 | 0.00 | 0.00 | 0.00 | 81 | 1002.0 |
| 20260505113119 | 72 | 297 | 2.0 | 3.0 | 0.00 | 0.00 | 0.00 | 81 | 1001.8 |
| 20260505112615 | 72 | 213 | 3.0 | 6.0 | 0.00 | 0.00 | 0.00 | 81 | 1001.7 |
| 20260505112114 | 72 | 228 | 2.0 | 2.0 | 0.00 | 0.00 | 0.00 | 81 | 1001.8 |
| 20260505111613 | 72 | 260 | 1.0 | 2.0 | 0.00 | 0.00 | 0.00 | 81 | 1001.7 |
| 20260505111109 | 72 | 195 | 2.0 | 2.0 | 0.00 | 0.00 | 0.00 | 81 | 1001.7 |
| 20260505110606 | 72 | 157 | 6.0 | 8.0 | 0.00 | 0.00 | 0.00 | 82 | 1001.4 |
| 20260505102039 | 72 | 138 | 6.0 | 10.0 | 0.00 | 0.00 | 0.00 | 80 | 1001.7 |
| 20260505101537 | 72 | 219 | 3.0 | 4.0 | 0.00 | 0.00 | 0.00 | 81 | 1001.7 |
| 20260505101033 | 72 | 182 | 8.0 | 9.0 | 0.00 | 0.00 | 0.00 | 81 | 1001.7 |
| 20260505100530 | 72 | 162 | 7.0 | 10.0 | 0.00 | 0.00 | 0.00 | 81 | 1001.9 |
| 20260505100027 | 72 | 229 | 4.0 | 7.0 | 0.00 | 0.00 | 0.00 | 80 | 1001.8 |
| 20260505095523 | 72 | 216 | 7.0 | 10.0 | 0.00 | 0.00 | 0.00 | 80 | 1001.6 |
| 20260505095019 | 72 | 134 | 3.0 | 8.0 | 0.00 | 0.00 | 0.00 | 80 | 1001.7 |
| 20260505094516 | 72 | 211 | 4.0 | 6.0 | 0.00 | 0.00 | 0.00 | 80 | 1001.8 |
| 20260505094012 | 72 | 348 | 2.0 | 3.0 | 0.00 | 0.00 | 0.00 | 80 | 1001.7 |
| 20260505093509 | 72 | 209 | 2.0 | 3.0 | 0.00 | 0.00 | 0.00 | 80 | 1002.0 |
| 20260505093006 | 72 | 180 | 3.0 | 4.0 | 0.00 | 0.00 | 0.00 | 80 | 1002.1 |
| 20260505092504 | 72 | 290 | 4.0 | 4.0 | 0.00 | 0.00 | 0.00 | 80 | 1002.2 |
| 20260505092001 | 72 | 177 | 2.0 | 3.0 | 0.00 | 0.00 | 0.00 | 80 | 1002.5 |
| 20260505091458 | 72 | 264 | 4.0 | 6.0 | 0.00 | 0.00 | 0.00 | 80 | 1002.3 |
| 20260505090957 | 72 | 275 | 2.0 | 3.0 | 0.00 | 0.00 | 0.00 | 80 | 1002.2 |
| 20260505090454 | 72 | 230 | 2.0 | 2.0 | 0.00 | 0.00 | 0.00 | 80 | 1002.3 |
| 20260505085951 | 72 | 280 | 7.0 | 9.0 | 0.00 | 0.00 | 0.00 | 80 | 1002.3 |
| 20260505085449 | 72 | 231 | 2.0 | 2.0 | 0.00 | 0.00 | 0.00 | 79 | 1002.4 |
| 20260505084947 | 72 | 223 | 5.0 | 8.0 | 0.00 | 0.00 | 0.00 | 79 | 1002.3 |
| 20260505084445 | 72 | 212 | 7.0 | 14.0 | 0.00 | 0.00 | 0.00 | 79 | 1002.3 |
| 20260505083943 | 72 | 211 | 4.0 | 7.0 | 0.00 | 0.00 | 0.00 | 79 | 1002.3 |
| 20260505083440 | 72 | 273 | 4.0 | 6.0 | 0.00 | 0.00 | 0.00 | 79 | 1002.1 |
| 20260505082936 | 73 | 163 | 1.0 | 2.0 | 0.00 | 0.00 | 0.00 | 78 | 1002.2 |
| 20260505082432 | 73 | 50 | 1.0 | 2.0 | 0.00 | 0.00 | 0.00 | 78 | 1002.4 |
| 20260505081929 | 73 | 190 | 4.0 | 6.0 | 0.00 | 0.00 | 0.00 | 78 | 1002.4 |
| 20260505081426 | 73 | 199 | 1.0 | 2.0 | 0.00 | 0.00 | 0.00 | 78 | 1002.4 |
| 20260505080922 | 73 | 264 | 1.0 | 1.0 | 0.00 | 0.00 | 0.00 | 77 | 1002.2 |
| 20260505080419 | 73 | 293 | 2.0 | 3.0 | 0.00 | 0.00 | 0.00 | 77 | 1002.4 |
| 20260505075914 | 73 | 205 | 2.0 | 4.0 | 0.00 | 0.00 | 0.00 | 77 | 1002.3 |
| 20260505075411 | 73 | 231 | 4.0 | 7.0 | 0.00 | 0.00 | 0.00 | 76 | 1002.5 |
| 20260505074909 | 73 | 278 | 5.0 | 10.0 | 0.00 | 0.00 | 0.00 | 76 | 1002.4 |
| 20260505074406 | 73 | 273 | 4.0 | 6.0 | 0.00 | 0.00 | 0.00 | 76 | 1002.5 |
| 20260505073903 | 73 | 183 | 4.0 | 6.0 | 0.00 | 0.00 | 0.00 | 75 | 1002.7 |
| 20260505073400 | 74 | 3 | 2.0 | 3.0 | 0.00 | 0.00 | 0.00 | 75 | 1002.8 |
| 20260505072858 | 74 | 75 | 4.0 | 6.0 | 0.00 | 0.00 | 0.00 | 75 | 1002.9 |
| 20260505072353 | 74 | 179 | 5.0 | 8.0 | 0.00 | 0.00 | 0.00 | 74 | 1003.0 |
| 20260505071850 | 74 | 169 | 5.0 | 7.0 | 0.00 | 0.00 | 0.00 | 74 | 1003.0 |
| 20260505071346 | 74 | 180 | 4.0 | 6.0 | 0.00 | 0.00 | 0.00 | 73 | 1003.1 |
| 20260505070845 | 74 | 356 | 3.0 | 4.0 | 0.00 | 0.00 | 0.00 | 73 | 1003.2 |
| 20260505070341 | 74 | 144 | 3.0 | 4.0 | 0.00 | 0.00 | 0.00 | 72 | 1002.9 |
| 20260505065836 | 74 | 191 | 4.0 | 7.0 | 0.00 | 0.00 | 0.00 | 72 | 1003.2 |
| 20260505065333 | 74 | 288 | 2.0 | 3.0 | 0.00 | 0.00 | 0.00 | 72 | 1003.4 |
| 20260505064830 | 74 | 286 | 4.0 | 6.0 | 0.00 | 0.00 | 0.00 | 72 | 1003.5 |
| 20260505064327 | 74 | 221 | 4.0 | 6.0 | 0.00 | 0.00 | 0.00 | 71 | 1003.5 |
| 20260505063825 | 74 | 330 | 6.0 | 9.0 | 0.00 | 0.00 | 0.00 | 71 | 1003.7 |
| 20260505063321 | 74 | 223 | 3.0 | 4.0 | 0.00 | 0.00 | 0.00 | 71 | 1003.5 |
| 20260505062817 | 74 | 204 | 6.0 | 9.0 | 0.00 | 0.00 | 0.00 | 70 | 1003.6 |
| 20260505062315 | 74 | 226 | 4.0 | 6.0 | 0.00 | 0.00 | 0.00 | 70 | 1003.8 |
| 20260505061812 | 74 | 250 | 3.0 | 4.0 | 0.00 | 0.00 | 0.00 | 70 | 1003.7 |
| 20260505061310 | 75 | 216 | 2.0 | 3.0 | 0.00 | 0.00 | 0.00 | 70 | 1003.8 |
| 20260505060807 | 75 | 149 | 3.0 | 4.0 | 0.00 | 0.00 | 0.00 | 69 | 1003.6 |
| 20260505060304 | 75 | 182 | 7.0 | 8.0 | 0.00 | 0.00 | 0.00 | 69 | 1003.6 |
| 20260505055759 | 75 | 54 | 7.0 | 9.0 | 0.00 | 0.00 | 0.00 | 69 | 1003.6 |
| 20260505055256 | 75 | 179 | 6.0 | 8.0 | 0.00 | 0.00 | 0.00 | 69 | 1003.7 |
| 20260505054753 | 75 | 259 | 6.0 | 8.0 | 0.00 | 0.00 | 0.00 | 68 | 1003.8 |
| 20260505054251 | 75 | 62 | 5.0 | 8.0 | 0.00 | 0.00 | 0.00 | 68 | 1003.9 |
| 20260505053749 | 75 | 203 | 4.0 | 7.0 | 0.00 | 0.00 | 0.00 | 68 | 1003.9 |
| 20260505053245 | 75 | 130 | 3.0 | 6.0 | 0.00 | 0.00 | 0.00 | 68 | 1003.7 |
| 20260505052743 | 75 | 113 | 3.0 | 3.0 | 0.00 | 0.00 | 0.00 | 68 | 1003.8 |
| 20260505052239 | 75 | 215 | 5.0 | 8.0 | 0.00 | 0.00 | 0.00 | 67 | 1003.8 |
| 20260505051736 | 75 | 137 | 4.0 | 6.0 | 0.00 | 0.00 | 0.00 | 67 | 1004.0 |
| 20260505051234 | 75 | 162 | 4.0 | 4.0 | 0.00 | 0.00 | 0.00 | 67 | 1004.0 |
| 20260505050732 | 75 | 86 | 4.0 | 7.0 | 0.00 | 0.00 | 0.00 | 67 | 1003.9 |
| 20260505050230 | 75 | 194 | 6.0 | 10.0 | 0.00 | 0.00 | 0.00 | 67 | 1004.0 |
| 20260505041700 | 76 | 220 | 4.0 | 4.0 | 0.00 | 0.00 | 0.00 | 66 | 1003.9 |
| 20260505041157 | 76 | 249 | 6.0 | 15.0 | 0.00 | 0.00 | 0.00 | 65 | 1004.1 |
| 20260505040654 | 76 | 278 | 6.0 | 9.0 | 0.00 | 0.00 | 0.00 | 65 | 1004.3 |
| 20260505040151 | 76 | 212 | 3.0 | 4.0 | 0.00 | 0.00 | 0.00 | 65 | 1004.1 |
| 20260505035648 | 76 | 297 | 4.0 | 7.0 | 0.00 | 0.00 | 0.00 | 65 | 1004.2 |
| 20260505035144 | 76 | 169 | 4.0 | 6.0 | 0.00 | 0.00 | 0.00 | 65 | 1004.2 |
| 20260505034640 | 76 | 241 | 8.0 | 11.0 | 0.00 | 0.00 | 0.00 | 65 | 1004.3 |
| 20260505034138 | 76 | 199 | 6.0 | 10.0 | 0.00 | 0.00 | 0.00 | 65 | 1004.2 |
| 20260505033634 | 76 | 187 | 6.0 | 9.0 | 0.00 | 0.00 | 0.00 | 65 | 1004.1 |
| 20260505033133 | 76 | 117 | 8.0 | 13.0 | 0.00 | 0.00 | 0.00 | 64 | 1004.0 |
| 20260505032630 | 76 | 165 | 3.0 | 4.0 | 0.00 | 0.00 | 0.00 | 64 | 1004.2 |
| 20260505032126 | 76 | 65 | 3.0 | 4.0 | 0.00 | 0.00 | 0.00 | 64 | 1004.3 |
| 20260505031624 | 76 | 187 | 3.0 | 7.0 | 0.00 | 0.00 | 0.00 | 64 | 1004.1 |
| 20260505031120 | 76 | 213 | 5.0 | 8.0 | 0.00 | 0.00 | 0.00 | 64 | 1004.2 |
| 20260505030617 | 76 | 203 | 4.0 | 6.0 | 0.00 | 0.00 | 0.00 | 63 | 1004.2 |
| 20260505030113 | 77 | 259 | 4.0 | 6.0 | 0.00 | 0.00 | 0.00 | 63 | 1004.1 |
| 20260505025609 | 77 | 223 | 5.0 | 8.0 | 0.00 | 0.00 | 0.00 | 63 | 1004.2 |
| 20260505025108 | 77 | 155 | 1.0 | 7.0 | 0.00 | 0.00 | 0.00 | 63 | 1004.5 |
| 20260505024604 | 77 | 80 | 2.0 | 4.0 | 0.00 | 0.00 | 0.00 | 63 | 1004.3 |
| 20260505024102 | 77 | 212 | 6.0 | 10.0 | 0.00 | 0.00 | 0.00 | 63 | 1004.4 |
| 20260505023559 | 77 | 194 | 3.0 | 3.0 | 0.00 | 0.00 | 0.00 | 63 | 1004.2 |
| 20260505023057 | 77 | 208 | 4.0 | 6.0 | 0.00 | 0.00 | 0.00 | 63 | 1004.3 |
| 20260505022554 | 77 | 232 | 6.0 | 10.0 | 0.00 | 0.00 | 0.00 | 63 | 1004.2 |
| 20260505022051 | 77 | 44 | 6.0 | 11.0 | 0.00 | 0.00 | 0.00 | 62 | 1004.2 |
| 20260505021547 | 77 | 227 | 3.0 | 4.0 | 0.00 | 0.00 | 0.00 | 62 | 1004.1 |
| 20260505021044 | 77 | 240 | 3.0 | 4.0 | 0.00 | 0.00 | 0.00 | 61 | 1003.9 |
| 20260505020544 | 77 | 177 | 4.0 | 6.0 | 0.00 | 0.00 | 0.00 | 61 | 1004.0 |
| 20260505020041 | 77 | 202 | 3.0 | 4.0 | 0.00 | 0.00 | 0.00 | 61 | 1004.0 |
| 20260505015538 | 77 | 289 | 6.0 | 9.0 | 0.00 | 0.00 | 0.00 | 61 | 1004.0 |
| 20260505015035 | 77 | 317 | 1.0 | 1.0 | 0.00 | 0.00 | 0.00 | 61 | 1003.9 |
| 20260505014531 | 77 | 261 | 5.0 | 7.0 | 0.00 | 0.00 | 0.00 | 60 | 1004.0 |
| 20260505014029 | 77 | 200 | 2.0 | 2.0 | 0.00 | 0.00 | 0.00 | 60 | 1004.1 |